TimeCST,TemperatureF,Dew PointF,Humidity,Sea Level PressureIn,VisibilityMPH,Wind Direction,Wind SpeedMPH,Gust SpeedMPH,PrecipitationIn,Events,Conditions,WindDirDegrees,DateUTC
12:53 AM,55.0,32.0,42,30.13,10.0,South,16.1,-,N/A,,Overcast,180,2012-11-19 06:53:00
1:53 AM,55.0,32.0,42,30.11,10.0,South,17.3,-,N/A,,Mostly Cloudy,180,2012-11-19 07:53:00
2:53 AM,55.0,37.0,51,30.12,10.0,SSW,24.2,32.2,N/A,,Mostly Cloudy,200,2012-11-19 08:53:00
3:53 AM,52.0,41.0,66,30.10,10.0,South,23.0,28.8,N/A,,Mostly Cloudy,190,2012-11-19 09:53:00
4:53 AM,50.0,42.1,74,30.11,10.0,South,13.8,-,N/A,,Partly Cloudy,190,2012-11-19 10:53:00
5:53 AM,48.9,42.1,77,30.12,10.0,South,15.0,-,N/A,,Mostly Cloudy,190,2012-11-19 11:53:00
6:53 AM,50.0,42.1,74,30.11,10.0,South,15.0,-,N/A,,Mostly Cloudy,190,2012-11-19 12:53:00
7:53 AM,48.9,42.1,77,30.12,10.0,South,13.8,-,N/A,,Scattered Clouds,190,2012-11-19 13:53:00
8:53 AM,52.0,43.0,71,30.13,10.0,SSW,16.1,23.0,N/A,,Scattered Clouds,200,2012-11-19 14:53:00
9:53 AM,55.9,43.0,62,30.12,10.0,SSW,17.3,23.0,N/A,,Mostly Cloudy,210,2012-11-19 15:53:00
10:53 AM,59.0,43.0,55,30.12,10.0,SSW,15.0,-,N/A,,Mostly Cloudy,200,2012-11-19 16:53:00
11:53 AM,59.0,44.1,58,30.09,10.0,SSW,18.4,23.0,N/A,,Mostly Cloudy,210,2012-11-19 17:53:00
12:53 PM,62.1,45.0,53,30.07,10.0,SSW,11.5,-,N/A,,Scattered Clouds,210,2012-11-19 18:53:00
1:53 PM,64.0,45.0,50,30.05,10.0,SSW,10.4,18.4,N/A,,Partly Cloudy,210,2012-11-19 19:53:00
2:53 PM,64.9,46.0,50,30.04,10.0,SW,11.5,20.7,N/A,,Partly Cloudy,230,2012-11-19 20:53:00
3:53 PM,63.0,46.0,54,30.05,10.0,SSW,8.1,-,N/A,,Scattered Clouds,210,2012-11-19 21:53:00
4:53 PM,60.1,46.0,60,30.05,10.0,SSW,9.2,-,N/A,,Scattered Clouds,210,2012-11-19 22:53:00
5:53 PM,53.1,44.1,71,30.07,10.0,South,5.8,-,N/A,,Clear,180,2012-11-19 23:53:00
6:53 PM,53.1,44.1,71,30.09,10.0,South,5.8,-,N/A,,Clear,170,2012-11-20 00:53:00
7:53 PM,48.0,43.0,83,30.08,10.0,South,9.2,-,N/A,,Clear,180,2012-11-20 01:53:00
8:53 PM,51.1,45.0,80,30.09,10.0,SW,6.9,-,N/A,,Clear,220,2012-11-20 02:53:00
9:53 PM,50.0,44.1,80,30.10,10.0,West,5.8,-,N/A,,Clear,260,2012-11-20 03:53:00
10:53 PM,51.1,43.0,74,30.10,10.0,WNW,4.6,-,N/A,,Clear,290,2012-11-20 04:53:00
11:53 PM,50.0,41.0,71,30.10,10.0,WNW,4.6,-,N/A,,Clear,290,2012-11-20 05:53:00